Weather in Bournemouth

United Kingdom     50°43′30″N   1°52′02″W
temp.,
°C
wind,
m/s
gust,
m/s
humid.,
%
clouds,
%
prec.,
mm/h
press.,
hPa
HPBL,
m
15 april, thu
thu1501:00+3ene46872 0.0 1033196
04:00+2ne45858 0.0 1033182
07:00+1ne478911 0.0 1034213
10:00+6ene56705 0.0 1034790
13:00+9e455260 0.0 10331440
16:00+9se135793 0.1 1032984
19:00+7e467899 0.4 1032481
22:00+5ne478778 0.3 1032303
16 april, fri
fri1601:00+3ne45895 0.3 1032176
04:00+2nne469219 0.0 1032175
07:00+1nne579416 0.0 1032190
10:00+6ne56743 0.0 1032605
13:00+9ene34515 0.0 10311273
16:00+10s235376 0.0 10291115
19:00+8ssw346790 0.1 1030163
22:00+5wnw117810 0.0 103059
17 april, sat
sat1701:00+5ese23765 0.0 1030209
04:00+3ne33825 0.0 1030108
07:00+2nne45775 0.0 1030128
10:00+7ene45595 0.0 1030588
13:00+9sse33533 0.0 1028942
16:00+9ssw43615 0.0 1027436
19:00+8sw56715 0.0 1027290
22:00+5w4575100 0.0 1027104
18 april, sun
sun1801:00+5wnw2276100 0.0 102771
04:00+5wnw2273100 0.0 102666
07:00+6w2270100 0.0 102693
10:00+9sw3462100 0.0 1026569
13:00+9ssw5562100 0.0 1025676
16:00+10ssw446683 0.0 1024614
19:00+9ssw347551 0.0 1025203
22:00+6sw238275 0.0 102581
19 april, mon
mon1901:00+6sw128194 0.0 102479
04:00+6ssw118374 0.0 102342
07:00+6ese228370 0.0 102262
10:00+9sse4470100 0.0 1022459
13:00+10sse4468100 0.0 1021491
16:00+10sse3363100 0.0 1019359
19:00+9sse1271100 0.0 101958
22:00+8e2274100 0.0 101930